Location: Musselshell
(46.5176°N, 108.0911°W)
Time: 22:17:03
(UTC+00:00)

AO-91 - Pass Details

Date: 28 June 2022
Orbit: 450 x 797 km, 97.7° (Epoch: 13 August)

Event Time Altitude Azimuth Distance (km) Brightness Sun altitude
Rises 06:24:23 0° 8° (N) 2,589 ? -19.2°
Reaches altitude 10° 06:26:32 10° 4° (N) 1,664 ? -19.3°
Maximum altitude 06:29:58 51° 287° (WNW) 588 ? -19.4°
Enters shadow 06:30:48 40° 241° (WSW) 694 ? -19.5°
